Content
SEND FEEDBACK

Daily
Averages
Monthly
Summary
United States of America

WILMINGTON, NORTH CAROLINA


Home > North America > United States > North Carolina
Elevation: 72 feet     Latitude: 34 16N     Longitude: 077 54W

WEATHER
 
SELECT A DAY
Number of Records: 208,780;   Date Range: 1/1/95 - 7/26/14
 
SHARE

PRINT THIS DATA

[ ← Previous Day ]
WEATHER ALMANAC - FEBRUARY 6, 2013
[ Next Day → ]
[ °C ]   °F
Weather ElementAverageHighLow
Temperature53.6 °F68 °F (1:53 pm)43 °F (6:53 am)
Dewpoint41.6 °F46.9 °F (9:53 am)36 °F (1:53 pm)
Humidity68.1 %93 % (6:53 am)31 % (1:53 pm)
Barometer30.13 in30.24 in (11:53 pm)30.00 in (1:53 am)
Wind Speed4.7 mph10.4 mph (3:53 pm)
Weather ElementAverage
Visibility9.2 mi
Wind DirectionESE (104.8 °)

Weather ElementTotal
Precipitation---
Heating Degree Days9.5 (Base 65)
Growing Degree Days5.5 (Base 50)
Averaged from 23 records on February 6, 2013
WEATHER CONDITIONS BREAKOUT
WIND DIRECTION BREAKOUT
WEATHER BY HOUR - FEBRUARY 6, 2013
[ °C ]   °F
Local TimeTemperatureDewpointHumidityBarometerVisibilityWind DirectionWind SpeedGust SpeedPrecipitationEventsConditions
1:53 AM48.2 °F44.6 °F87 %30.00 in10.0 miSW (230°)4.6 mphClear
2:53 AM45.0 °F42.1 °F90 %30.00 in9.0 miSW (230°)3.5 mphClear
3:53 AM45.0 °F42.1 °F90 %30.02 in9.0 miWest (260°)4.6 mphClear
4:53 AM45.0 °F42.1 °F90 %30.03 in7.0 miCalmClear
5:53 AM46.0 °F42.1 °F86 %30.06 in7.0 miCalmClear
6:53 AM43.0 °F41.0 °F93 %30.08 in8.0 miCalmClear
7:53 AM46.0 °F43.0 °F89 %30.11 in5.0 miCalmClear
8:53 AM54.0 °F46.0 °F75 %30.13 in9.0 miWNW (290°)6.9 mph0.00 inClear
9:53 AM59.0 °F46.9 °F64 %30.14 in10.0 miNNW (330°)8.1 mphClear
10:53 AM64.9 °F44.1 °F47 %30.15 in10.0 miNorth (350°)6.9 mphClear
11:53 AM66.0 °F37.9 °F36 %30.14 in10.0 miVariable5.8 mphClear
12:53 PM66.9 °F37.0 °F33 %30.13 in10.0 miVariable5.8 mphClear
1:53 PM68.0 °F36.0 °F31 %30.11 in10.0 miVariable4.6 mphClear
2:53 PM66.0 °F39.9 °F38 %30.11 in10.0 miEast (100°)9.2 mphClear
3:53 PM63.0 °F37.9 °F40 %30.12 in10.0 miESE (120°)10.4 mphClear
4:53 PM60.1 °F37.0 °F42 %30.14 in10.0 miSE (130°)10.4 mphClear
5:53 PM55.9 °F42.1 °F60 %30.15 in10.0 miSE (130°)3.5 mphClear
6:53 PM53.1 °F42.1 °F66 %30.18 in10.0 miCalmClear
7:53 PM46.9 °F41.0 °F80 %30.19 in10.0 miCalmClear
8:53 PM45.0 °F41.0 °F86 %30.22 in7.0 miNNE (30°)4.6 mphClear
9:53 PM46.9 °F42.1 °F83 %30.22 in10.0 miENE (70°)3.5 mphClear
10:53 PM51.1 °F43.0 °F74 %30.22 in10.0 miEast (80°)6.9 mphClear
11:53 PM48.9 °F45.0 °F86 %30.24 in10.0 miENE (60°)8.1 mphClear
Hourly data recorded from KILM, located miles away from Wilmington, North Carolina







STORIES FROM OUR PARTNERS